Terug naar catalogus

STARLINK-34074

ActiefCommunicatieVLEO
NORAD 64099·PAYLOAD·🇺🇸 United States

Gelanceerd May 23, 2025 vanaf Vandenberg Space Force Base

Loading…

Volgende Passages (komende 24 uur)

TLE

VersSource: CelesTrak SupGP

Epoch: Sep 15, 2026, 02:59 UTC

1 64099C 25110D   26258.12479167 -.00052869  00000+0 -15620-2 0  2582
2 64099  53.1579 226.5481 0001409  96.2027 141.2626 15.34417128    17

Volg STARLINK-34074 in realtime met AllMySat

Download on the App Store